This demonstration page uses our WeatherBlox Daily Observations layout. Learn more.

Left ArrowRight Arrow

Hourly Observations for May 8, 2022

Temp ( °F °C ) Dew Point ( °F °C ) Humidity (%) Winds ( mph kmh ) Pressure ( in mb ) Visibility ( mi km ) Precip ( " mm )
12:15 am 00:15 Cloudy 65 18.5 57 14 75 75 N 9 15 29.45 997 10 16 0.00 0.00
12:35 am 00:35 Cloudy 65 18.5 57 14 75 75 E 3 6 29.43 997 10 16 0.00 0.00
12:55 am 00:55 Cloudy 65 18.3 58 14.3 78 78 Calm 29.48 998 5 8 0.03 0.76
1:15 am 01:15 Cloudy with Rain 63 17 59 15.2 89 89 Calm 29.48 998 5 8 0.07 1.78
1:35 am 01:35 Cloudy with Nearby Thunderstorms 62 16.5 59 15.2 92 92 N 10 17 29.48 998 7 11 0.11 2.79
1:55 am 01:55 Cloudy 59 15 57 14 94 94 N 17 28 29.49 999 10 16 0.17 4.32
2:15 am 02:15 Cloudy with Nearby Thunderstorms 57 14.1 56 13.1 94 94 N 21 33 29.50 999 10 16 0.00 0.00
2:35 am 02:35 Cloudy 56 13.5 55 12.5 94 94 N 28 44 29.50 999 10 16 0.00 0.00
2:55 am 02:55 Cloudy 56 13.3 54 12.2 93 93 N 26 43 29.50 999 10 16 0.01 0.25
3:15 am 03:15 Cloudy 56 13.5 53 11.7 89 89 N 24 39 29.51 999 10 16 0.00 0.00
3:35 am 03:35 Cloudy 56 13.5 52 11.3 87 87 N 28 44 29.52 1000 10 16 0.00 0.00
3:55 am 03:55 Cloudy 57 13.8 52 11 83 83 NNE 30 48 29.53 1000 10 16 0.00 0.00
4:15 am 04:15 Cloudy 57 13.9 51 10.6 81 81 NNE 28 44 29.53 1000 10 16 0.00 0.00
4:35 am 04:35 Cloudy 57 13.8 51 10.8 82 82 NNE 21 33 29.53 1000 10 16 0.00 0.00
4:55 am 04:55 Cloudy 57 13.9 51 10.8 82 82 NNE 21 33 29.54 1000 10 16 0.00 0.00
5:15 am 05:15 Cloudy 57 14 51 10.6 80 80 NNE 16 26 29.57 1001 10 16 0.00 0.00
5:35 am 05:35 Cloudy 56 13.6 51 10.6 82 82 NNE 21 33 29.54 1000 10 16 0.00 0.00
5:55 am 05:55 Partly Cloudy 56 13.5 51 10.5 82 82 NNE 20 31 29.53 1000 10 16 0.00 0.00
6:15 am 06:15 Clear 55 13 51 10.8 87 87 NNE 17 28 29.54 1000 10 16 0.00 0.00
6:35 am 06:35 Sunny 55 12.8 52 11.1 90 90 NNE 14 22 29.56 1001 10 16 0.00 0.00
6:55 am 06:55 Sunny 56 13.3 52 11.2 87 87 NE 13 20 29.55 1001 10 16 0.00 0.00
7:15 am 07:15 Sunny 55 13 52 11.3 90 90 NNE 12 19 29.57 1001 10 16 0.00 0.00
7:35 am 07:35 Sunny 56 13.5 53 11.5 88 88 ENE 12 19 29.55 1001 10 16 0.00 0.00
7:55 am 07:55 Sunny 57 13.7 53 11.6 87 87 NE 10 17 29.55 1001 10 16 0.00 0.00
8:15 am 08:15 Sunny 57 14 53 11.9 87 87 ENE 13 20 29.54 1000 10 16 0.00 0.00
8:35 am 08:35 Sunny 58 14.6 54 12 85 85 NE 9 15 29.55 1001 10 16 0.00 0.00
8:55 am 08:55 Sunny 60 15.4 54 12.1 81 81 ENE 12 19 29.54 1000 10 16 0.00 0.00
9:15 am 09:15 Sunny 61 16 54 12.1 78 78 ENE 14 22 29.53 1000 10 16 0.00 0.00
9:35 am 09:35 Sunny 62 16.8 54 12.4 75 75 ENE 13 20 29.52 1000 10 16 0.00 0.00
9:55 am 09:55 Sunny 63 17.3 54 12.2 72 72 ENE 10 17 29.52 1000 10 16 0.00 0.00
10:15 am 10:15 Sunny 65 18.1 55 12.5 70 70 ENE 14 22 29.51 999 10 16 0.00 0.00
10:35 am 10:35 Sunny 66 19 54 12.4 66 66 ENE 14 22 29.50 999 10 16 0.00 0.00
10:55 am 10:55 Sunny 67 19.3 55 12.8 66 66 ENE 8 13 29.51 999 10 16 0.00 0.00
11:15 am 11:15 Sunny 67 19.7 55 12.7 64 64 NE 8 13 29.51 999 10 16 0.00 0.00
11:35 am 11:35 Sunny 68 20 56 13.1 65 65 NE 6 9 29.51 999 10 16 0.00 0.00
11:55 am 11:55 Sunny 70 20.9 56 13.3 62 62 N 9 15 29.51 999 10 16 0.00 0.00
12:15 pm 12:15 Sunny 70 21.1 56 13.2 61 61 N 9 15 29.51 999 10 16 0.00 0.00
12:35 pm 12:35 Sunny 71 21.5 55 12.5 57 57 N 6 9 29.51 999 10 16 0.00 0.00
12:55 pm 12:55 Sunny 71 21.8 55 12.8 57 57 NW 7 11 29.50 999 10 16 0.00 0.00
1:15 pm 13:15 Sunny 72 22.2 55 12.7 55 55 NNW 7 11 29.49 999 10 16 0.00 0.00
1:35 pm 13:35 Sunny 73 22.9 56 13.1 54 54 NNE 9 15 29.48 998 10 16 0.00 0.00
1:55 pm 13:55 Sunny 74 23.1 54 12.2 50 50 N 10 17 29.47 998 10 16 0.00 0.00
2:15 pm 14:15 Sunny 74 23.3 53 11.7 48 48 N 6 9 29.47 998 10 16 0.00 0.00
2:35 pm 14:35 Sunny 74 23.4 53 11.5 47 47 NNW 6 9 29.45 997 10 16 0.00 0.00
2:55 pm 14:55 Sunny 76 24.2 51 10.3 42 42 NNE 10 17 29.43 997 10 16 0.00 0.00
3:15 pm 15:15 Sunny 76 24.2 52 11.3 44 44 NE 8 13 29.43 997 10 16 0.00 0.00
3:35 pm 15:35 Sunny 76 24.3 50 9.9 40 40 NE 8 13 29.42 996 10 16 0.00 0.00
3:55 pm 15:55 Sunny 77 24.9 50 9.9 39 39 NE 9 15 29.41 996 10 16 0.00 0.00
4:15 pm 16:15 Sunny 76 24.7 48 9.1 37 37 ENE 3 6 29.42 996 10 16 0.00 0.00
4:35 pm 16:35 Sunny 77 25.1 50 10.1 39 39 ENE 6 9 29.41 996 10 16 0.00 0.00
4:55 pm 16:55 Sunny 77 25 51 10.8 41 41 ENE 9 15 29.38 995 10 16 0.00 0.00
5:15 pm 17:15 Sunny 77 25.1 52 11.3 42 42 ENE 10 17 29.38 995 10 16 0.00 0.00
5:35 pm 17:35 Sunny 77 25.2 52 11 41 41 E 13 20 29.37 994 10 16 0.00 0.00
5:55 pm 17:55 Sunny 78 25.3 52 11 41 41 E 10 17 29.37 994 10 16 0.00 0.00
6:15 pm 18:15 Sunny 77 24.9 53 11.7 44 44 E 15 24 29.37 995 10 16 0.00 0.00
6:35 pm 18:35 Sunny 76 24.5 55 12.7 48 48 E 15 24 29.37 995 10 16 0.00 0.00
6:55 pm 18:55 Sunny 74 23.5 56 13.6 54 54 E 16 26 29.37 995 10 16 0.00 0.00
7:15 pm 19:15 Sunny 73 22.5 59 15.2 63 63 ESE 18 30 29.38 995 10 16 0.00 0.00
7:35 pm 19:35 Sunny 71 21.6 59 15.2 67 67 ESE 16 26 29.39 995 10 16 0.00 0.00
7:55 pm 19:55 Sunny 70 20.9 59 15 69 69 E 14 22 29.39 995 10 16 0.00 0.00
8:15 pm 20:15 Sunny 68 20.1 60 15.5 75 75 ESE 15 24 29.39 995 10 16 0.00 0.00
8:35 pm 20:35 Sunny 66 19.1 60 15.8 81 81 E 10 17 29.41 996 10 16 0.00 0.00
8:55 pm 20:55 Mostly Cloudy 67 19.3 61 16.1 82 82 ESE 13 20 29.40 996 10 16 0.00 0.00
9:15 pm 21:15 Cloudy 66 19 62 16.7 87 87 ESE 13 20 29.41 996 10 16 0.00 0.00
9:35 pm 21:35 Cloudy 66 18.8 63 17 89 89 ESE 12 19 29.41 996 10 16 0.00 0.00
9:55 pm 21:55 Cloudy 66 18.7 63 17.1 90 90 E 16 26 29.38 995 10 16 0.00 0.00
10:15 pm 22:15 Cloudy 65 18.1 62 16.9 93 93 E 21 33 29.36 994 7 11 0.00 0.00
10:35 pm 22:35 Cloudy with Mist and Fog 64 17.5 62 16.7 95 95 E 20 31 29.36 994 5 8 0.00 0.00
10:55 pm 22:55 Cloudy with Mist and Fog 63 17.3 62 16.7 96 96 E 15 24 29.35 994 5 8 0.00 0.00
11:15 pm 23:15 Cloudy with Mist and Fog 63 17.3 62 16.7 96 96 ESE 16 26 29.35 994 4 6 0.00 0.00
11:35 pm 23:35 Cloudy with Mist and Fog 63 17.4 62 16.9 97 97 E 15 24 29.33 993 4 6 0.00 0.00
11:55 pm 23:55 Cloudy with Mist and Fog 64 17.7 63 17.2 97 97 ESE 18 30 29.30 992 4 6 0.00 0.00

Powered by AerisWeather